View from above orbital plane
|
View from above satellite
|
Ground track
|
The orbit data is extracted from the following two-line orbital elements,
1 17566U 87024A 21021.08795566 .00000630 00000-0 27461-4 0 9991
2 17566 82.5036 65.7978 0002699 338.2596 21.8524 15.20372719853088
Epoch (UTC): | 21 January 2021 02:06:39 |
Eccentricity: | 0.0002699 |
inclination: | 82.5036° |
perigee height: | 503 km |
apogee height: | 506 km |
right ascension of ascending node: | 65.7978° |
argument of perigee: | 338.2596° |
revolutions per day: | 15.20372719 |
mean anomaly at epoch: | 21.8524° |
orbit number at epoch: | 85308 |
The dashed part of the orbit path shows where the satellite is in the earth's shadow,
|
|